Regional Weather Roundup
Issued by NWS Upton, NY

Current Version | Previous Version | Graphics & Text | Print | Product List | Glossary Off
Versions: 1 2 3 4 5 6 7 8 9 10 11 12 13 14 15 16 17 18 19 20 21 22 23 24 25 26 27 28 29 30 31 32 33 34 35 36 37 38 39 40 41 42 43 44 45 46 47 48 49 50

033
ASUS41 KOKX 250708
RWROKX

REGIONAL WEATHER ROUNDUP
NATIONAL WEATHER SERVICE NEW YORK NY
200 AM EST SAT FEB 25 2017

NOTE: "FAIR" INDICATES FEW OR NO CLOUDS BELOW 12,000 FEET WITH NO
SIGNIFICANT WEATHER AND/OR OBSTRUCTIONS TO VISIBILITY.

NYZ071-072-176-178-NJZ106-104-250800-
NEW YORK CITY METRO AREA

CITY           SKY/WX    TMP DP  RH WIND       PRES   REMARKS
Central Park   MOCLDY    57  53  86 S3        29.85F
Wall St Helipt NOT AVBL
LaGuardia APRT FOG       54  51  90 S5        29.83F VSB 1/4
Kennedy INTL   FOG       50  50 100 S6        29.86F VSB 1/4
Breezy Point     N/A     45 N/A N/A E3          N/A
Newark/Liberty CLOUDY    58  55  90 SE5       29.83F
Teterboro      CLOUDY    59  56  89 S7        29.82F
$$

NYZ177-179-078>081-250800-
LONG ISLAND NEW YORK

CITY           SKY/WX    TMP DP  RH WIND       PRES   REMARKS
Jones Beach      N/A     46 N/A N/A SE3         N/A
Matinecock PT    N/A     55 N/A N/A CALM        N/A
Farmingdale    FOG       51  51 100 S3        29.86F VSB 3/4
MacArthur/ISP  FOG       50  50 100 S6        29.86F VSB 1/2
Shirley        FOG       51  51 100 S6        29.87F VSB 1/2
Westhampton    CLOUDY    52  51  97 S8        29.89F FOG
Southampton    NOT AVBL
Bridgehampton  NOT AVBL
East Hampton   CLOUDY    53  52  96 S9        29.88F
Montauk          N/A     51  51 100 S7        29.89F
$$

NYZ052-065-067-250800-
HUDSON VALLEY

CITY           SKY/WX    TMP DP  RH WIND       PRES   REMARKS
White Plains   FOG       54  53  97 S6        29.83F VSB 1/4
Newburgh       MOCLDY    61  57  88 S6        29.81F
Montgomery     CLOUDY    56  53  90 CALM      29.78F
Poughkeepsie   CLOUDY    60  56  86 VRB6      29.79F
Albany         PTCLDY    60  53  77 S14G23    29.75S
$$

NJZ001-105-106-008-010-013-015-019>022-104-250800-
NEW JERSEY

CITY           SKY/WX    TMP DP  RH WIND       PRES   REMARKS
Newark/Liberty CLOUDY    58  55  90 SE5       29.83F
Teterboro      CLOUDY    59  56  89 S7        29.82F
Caldwell       CLOUDY    60  56  86 W5        29.82F
Somerville     MOCLDY    57  55  93 SE3       29.80F
Linden         NOT AVBL
Sussex         CLOUDY    62  57  83 S6        29.80F
Andover          N/A     60  54  80 SW8       29.80F
Trenton        MOCLDY    57  56  96 S7        29.81F
Millville      CLEAR     53  53 100 SE5       29.82F
Atlantic City  PTCLDY    55  53  93 S8        29.84F
Wrightstown    PTCLDY    55  55  97 S7        29.80F
Toms River     CLOUDY    52  52 100 S5        29.84F
Belmar         PTCLDY    53  53 100 S3        29.84F
$$

PAZ047>061-062-071-250800-
EASTERN PENNSYLVANIA

CITY           SKY/WX    TMP DP  RH WIND       PRES   REMARKS
Philadelphia   MOCLDY    58  54  86 S8        29.82F
Allentown      CLOUDY    63  56  78 S8        29.79F
Scranton       PTCLDY    61  56  83 S8G21     29.74F
$$

CTZ002-004>006-009-010-012-RIZ004-006-007-MAZ004-011-015-250800-
SOUTHERN NEW ENGLAND
 IN CT

CITY           SKY/WX    TMP DP  RH WIND       PRES   REMARKS
Bradley INTL   CLOUDY    56  55  97 S12       29.84S
Hartford       CLOUDY    56  55  97 S7        29.85S
Danbury        CLOUDY    58  55  90 S5        29.84F
Wtrbury/Oxford CLOUDY    55  52  88 SW5       29.86S VSB<1/4
Bridgeport     FOG       53  51  93 CALM      29.86R VSB 1/4
Meriden        FOG       54  52  93 S7        29.86S VSB 1/2
New Haven      FOG       50  50 100 CALM      29.86S VSB 1/4
Chester        FOG       54  54 100 S6        29.87S VSB<1/4
Groton         FOG       47  47 100 SE5       29.88S VSB 1/4
Wilimantic     CLOUDY    59  56  89 S6        29.87S

 IN RI

CITY           SKY/WX    TMP DP  RH WIND       PRES   REMARKS
Providence     CLOUDY    52  51  97 S6        29.89R
Block Island   MOCLDY    48  48 100 S13       29.90S
Westerly       CLOUDY    51  49  92 S5        29.89S FOG
 IN MA

CITY           SKY/WX    TMP DP  RH WIND       PRES   REMARKS
Boston         MOCLDY    53  53 100 S9        29.87S
Worcester      CLOUDY    55  53  93 SW12      29.85S
Westfield      CLOUDY    56  55  97 S8        29.82F
Provincetown   FOG       49  48  97 S12       29.91S VSB 1
Nantucket      CLEAR     47  45  93 S9        29.91F
$$

ANZ330-335-338-340-345-350-353-355-250800-
COASTAL MARINE OBSERVATIONS


STATION/POSITION TIME  SKY/WX   TEMP    WIND        PRES    VSBY  WAVE
                                AIR SEA DIR/SP/G                  HT/PER
                 (UTC)          (F)     (DEG/KT/KT) (MB)    (MI)  (FT/S)
NY HARB ENTRANCE 0550            46 44  160/  6/  6 1010.9          3/12
20 S FIRE ISLAND 0650            48 44  160/ 10/ 10 1010.8          3/11
GREAT SOUTH BAY  NOT AVBL
23 SSW MONTAUK P 0550            49 44              1012.7          3/10
15 E BARNEGAT LI 0630               44                N/A           4/11
HUDSON CANYON    0550               47              1011.9          4/11
KINGS POINT      0642               42              1010.2
EXECUTION ROCKS  NOT AVBL
CENTRAL LI SOUND 0615            47     180/  4/  6   N/A           0
EASTERN LI SOUND NOT AVBL
ROBBINS REEF     0636                   180/ 11/ 11 1010.5
$$


>>>>>>>>>>>>>>>>>>>>>>>>>>>> KEY <<<<<<<<<<<<<<<<<<<<<<<<<<<
>                                                          <
>     SKY/WX - Sky Condition/Present Weather               <
>     TMP    - Temperature in Fahrenheit                   <
>     DP     - Dew Point in Fahrenheit                     <
>     RH     - Relative Humidity in Percent                <
>     WIND   - Direction (from) and Speed in MPH           <
>     PRES   - Mean Sea Level Pressure (inches of Hg)      <
>     WCI    - Wind Chill Index                            <
>     VSB    - VISIBILITY IN MILES                         <
>     HX     - HEAT INDEX                                  <
>     TC     - TEMPERATURE IN CELSIUS                      <
>     VRB    - VARIABLE WIND DIRECTION                     <
>                                                          <
>>>>>>>>>>>>>>>>>>>>>>>>>>>> KEY <<<<<<<<<<<<<<<<<<<<<<<<<<<




USA.gov is the U.S. government's official web portal to all federal, state and local government web resources and services.